Location: Spring Creek
(38.2870°N, 100.2160°W)
Time: 07:17:38
(UTC+00:00)

Cosmos 2061 Rocket - Pass Details

Date: 08 May 2021
Orbit: 966 x 1012 km, 82.9° (Epoch: 21 June)

Event Time Altitude Azimuth Distance (km) Brightness Sun altitude
Rises 09:17:19 0° 353° (N) 3,697 7.6 -23.0°
Reaches altitude 10° 09:19:50 10° 353° (N) 2,752 6.9 -22.7°
Maximum altitude 09:26:10 90° 37° (NE) 1,000 4.0 -21.9°
Enters shadow 09:30:25 23° 175° (S) 1,991 5.3 -21.3°
